• In Hungary
  • List of Countries
  • For 7 days
  • Water Temperature
  • Satellite Maps
  • Weather Map
  • News
  • Weather Widgets
  • user-avatar
    Login

    Hourly Weather Natitingou

    Today, 18 October, Wednesday

    Time Temperature Precipitation Wind Pressure Humidity
    00:00 +25°C° 0 mm 1 mps 719 mmHg 35%
    01:00 +24°C° 0 mm 1 mps 718 mmHg 37%
    02:00 +22°C° 0 mm 0 mps 718 mmHg 39%
    03:00 +21°C° 0 mm 0 mps 718 mmHg 41%
    04:00 +21°C° 0 mm 0 mps 718 mmHg 43%
    05:00 +21°C° 0 mm 0 mps 718 mmHg 45%
    06:00 +21°C° 0 mm 0 mps 718 mmHg 47%
    07:00 +24°C° 0 mm 0 mps 718 mmHg 43%
    08:00 +27°C° 0 mm 0 mps 719 mmHg 39%
    09:00 +32°C° 0 mm 1 mps 720 mmHg 34%
    10:00 +34°C° 0 mm 1 mps 719 mmHg 30%
    11:00 +35°C° 0 mm 1 mps 719 mmHg 25%
    12:00 +37°C° 0 mm 1 mps 718 mmHg 21%
    13:00 +37°C° 0 mm 1 mps 718 mmHg 20%
    14:00 +38°C° 0 mm 2 mps 717 mmHg 19%
    15:00 +37°C° 0 mm 2 mps 716 mmHg 18%
    16:00 +35°C° 0 mm 2 mps 716 mmHg 22%
    17:00 +32°C° 0 mm 1 mps 716 mmHg 26%
    18:00 +29°C° 0 mm 1 mps 716 mmHg 30%
    19:00 +29°C° 0 mm 1 mps 717 mmHg 32%
    20:00 +28°C° 0 mm 1 mps 717 mmHg 34%
    21:00 +28°C° 0 mm 1 mps 718 mmHg 36%
    22:00 +27°C° 0 mm 1 mps 718 mmHg 40%
    23:00 +27°C° 0 mm 1 mps 718 mmHg 44%

    Tomorrow, 19 October, Thursday

    Time Temperature Precipitation Wind Pressure Humidity
    00:00 +26°C° 0 mm 1 mps 718 mmHg 47%
    01:00 +26°C° 0 mm 1 mps 718 mmHg 51%
    02:00 +25°C° 0 mm 1 mps 717 mmHg 55%
    03:00 +25°C° 0 mm 1 mps 717 mmHg 59%
    04:00 +24°C° 0 mm 1 mps 717 mmHg 62%
    05:00 +21°C° 0 mm 0 mps 718 mmHg 65%
    06:00 +21°C° 0 mm 0 mps 718 mmHg 69%
    07:00 +25°C° 0 mm 1 mps 719 mmHg 63%
    08:00 +28°C° 0 mm 1 mps 719 mmHg 57%
    09:00 +31°C° 0 mm 2 mps 720 mmHg 52%
    10:00 +34°C° 0 mm 2 mps 720 mmHg 44%
    11:00 +35°C° 0 mm 1 mps 719 mmHg 37%
    12:00 +37°C° 0 mm 1 mps 719 mmHg 30%
    13:00 +37°C° 0 mm 1 mps 718 mmHg 27%
    14:00 +37°C° 0 mm 1 mps 718 mmHg 24%
    15:00 +37°C° 0 mm 1 mps 717 mmHg 21%
    16:00 +35°C° 0 mm 1 mps 717 mmHg 24%
    17:00 +33°C° 0 mm 1 mps 716 mmHg 27%
    18:00 +30°C° 0 mm 1 mps 716 mmHg 30%
    19:00 +29°C° 0 mm 1 mps 717 mmHg 33%
    20:00 +28°C° 0 mm 1 mps 717 mmHg 35%
    21:00 +28°C° 0 mm 1 mps 718 mmHg 38%
    22:00 +27°C° 0 mm 1 mps 718 mmHg 40%
    23:00 +26°C° 0 mm 1 mps 718 mmHg 42%

    Day after tomorrow, 20 October, Friday

    Time Temperature Precipitation Wind Pressure Humidity
    00:00 +26°C° 0 mm 1 mps 717 mmHg 44%
    01:00 +25°C° 0 mm 1 mps 717 mmHg 48%
    02:00 +25°C° 0 mm 1 mps 717 mmHg 51%
    03:00 +25°C° 0 mm 1 mps 717 mmHg 55%
    04:00 +24°C° 0 mm 1 mps 717 mmHg 61%
    05:00 +24°C° 0 mm 1 mps 717 mmHg 66%
    06:00 +24°C° 0 mm 1 mps 717 mmHg 71%
    07:00 +26°C° 0 mm 1 mps 718 mmHg 65%
    08:00 +29°C° 0 mm 2 mps 719 mmHg 59%
    09:00 +31°C° 0 mm 2 mps 719 mmHg 54%
    10:00 +34°C° 0 mm 1 mps 719 mmHg 45%
    11:00 +37°C° 0 mm 1 mps 719 mmHg 36%
    12:00 +38°C° 0 mm 0 mps 718 mmHg 28%
    13:00 +37°C° 0 mm 0 mps 718 mmHg 26%
    14:00 +40°C° 0 mm 1 mps 717 mmHg 24%
    15:00 +39°C° 0 mm 1 mps 716 mmHg 22%
    16:00 +36°C° 0 mm 1 mps 716 mmHg 25%
    17:00 +34°C° 0 mm 1 mps 716 mmHg 28%
    18:00 +31°C° 0 mm 1 mps 716 mmHg 32%
    19:00 +31°C° 0 mm 1 mps 717 mmHg 35%
    20:00 +30°C° 0 mm 1 mps 717 mmHg 39%
    21:00 +29°C° 0 mm 2 mps 718 mmHg 43%
    22:00 +29°C° 0 mm 2 mps 718 mmHg 48%
    23:00 +28°C° 0 mm 1 mps 718 mmHg 53%

    21 October, Saturday

    Time Temperature Precipitation Wind Pressure Humidity
    00:00 +27°C° 0 mm 1 mps 718 mmHg 59%
    01:00 +27°C° 0 mm 1 mps 717 mmHg 63%
    02:00 +26°C° 0 mm 2 mps 717 mmHg 68%
    03:00 +26°C° 0 mm 2 mps 717 mmHg 72%
    04:00 +26°C° 0 mm 2 mps 717 mmHg 76%
    05:00 +25°C° 0 mm 1 mps 718 mmHg 80%
    06:00 +25°C° 0 mm 1 mps 718 mmHg 84%
    07:00 +27°C° 0 mm 1 mps 718 mmHg 75%
    08:00 +29°C° 0 mm 2 mps 719 mmHg 66%
    09:00 +31°C° 0 mm 2 mps 720 mmHg 58%
    10:00 +35°C° 0 mm 2 mps 719 mmHg 48%
    11:00 +36°C° 0 mm 1 mps 719 mmHg 39%
    12:00 +40°C° 0 mm 1 mps 718 mmHg 30%
    13:00 +40°C° 0 mm 1 mps 718 mmHg 28%
    14:00 +40°C° 0 mm 1 mps 717 mmHg 25%
    15:00 +40°C° 0 mm 1 mps 716 mmHg 23%
    16:00 +36°C° 0 mm 1 mps 716 mmHg 26%
    17:00 +34°C° 0 mm 1 mps 716 mmHg 29%
    18:00 +32°C° 0 mm 1 mps 716 mmHg 33%
    19:00 +31°C° 0 mm 1 mps 717 mmHg 35%
    20:00 +31°C° 0 mm 1 mps 717 mmHg 37%
    21:00 +30°C° 0 mm 1 mps 718 mmHg 38%
    22:00 +29°C° 0 mm 1 mps 718 mmHg 44%
    23:00 +28°C° 0 mm 1 mps 718 mmHg 49%

    22 October, Sunday

    Time Temperature Precipitation Wind Pressure Humidity
    00:00 +28°C° 0 mm 1 mps 718 mmHg 54%
    01:00 +27°C° 0 mm 1 mps 717 mmHg 58%
    02:00 +27°C° 0 mm 1 mps 717 mmHg 62%
    03:00 +26°C° 0 mm 1 mps 717 mmHg 66%
    04:00 +26°C° 0 mm 1 mps 717 mmHg 70%
    05:00 +25°C° 0 mm 1 mps 718 mmHg 73%
    06:00 +25°C° 0 mm 2 mps 718 mmHg 77%
    07:00 +27°C° 0 mm 2 mps 718 mmHg 71%
    08:00 +29°C° 0 mm 2 mps 719 mmHg 65%
    09:00 +31°C° 0 mm 3 mps 719 mmHg 58%
    10:00 +34°C° 0 mm 3 mps 719 mmHg 50%
    11:00 +36°C° 0 mm 2 mps 718 mmHg 43%
    12:00 +38°C° 0 mm 2 mps 717 mmHg 35%
    13:00 +37°C° 0 mm 1 mps 717 mmHg 33%
    14:00 +39°C° 0 mm 1 mps 716 mmHg 31%
    15:00 +36°C° 0 mm 0 mps 716 mmHg 29%
    16:00 +34°C° 0 mm 0 mps 716 mmHg 31%
    17:00 +32°C° 0 mm 0 mps 716 mmHg 34%
    18:00 +33°C° 0 mm 1 mps 716 mmHg 37%
    19:00 +32°C° 0 mm 1 mps 717 mmHg 40%
    20:00 +31°C° 0 mm 2 mps 717 mmHg 43%
    21:00 +31°C° 0 mm 2 mps 718 mmHg 46%
    22:00 +30°C° 0 mm 3 mps 717 mmHg 53%
    23:00 +29°C° 0 mm 3 mps 717 mmHg 59%

    23 October, Monday

    Time Temperature Precipitation Wind Pressure Humidity
    00:00 +28°C° 0 mm 3 mps 717 mmHg 66%
    01:00 +27°C° 0 mm 2 mps 717 mmHg 69%
    02:00 +26°C° 0 mm 2 mps 717 mmHg 73%
    03:00 +26°C° 0 mm 2 mps 717 mmHg 77%
    04:00 +25°C° 0 mm 2 mps 717 mmHg 79%
    05:00 +25°C° 0 mm 2 mps 718 mmHg 81%
    06:00 +25°C° 0 mm 2 mps 718 mmHg 83%
    07:00 +27°C° 0 mm 2 mps 718 mmHg 77%
    08:00 +29°C° 0 mm 3 mps 719 mmHg 70%
    09:00 +30°C° 0 mm 3 mps 719 mmHg 63%
    10:00 +33°C° 0 mm 3 mps 718 mmHg 56%
    11:00 +35°C° 0 mm 2 mps 718 mmHg 48%
    12:00 +37°C° 0 mm 2 mps 717 mmHg 41%
    13:00 +37°C° 0 mm 2 mps 717 mmHg 41%
    14:00 +36°C° 0 mm 2 mps 716 mmHg 40%
    15:00 +35°C° 0 mm 1 mps 715 mmHg 40%
    16:00 +35°C° 0 mm 2 mps 716 mmHg 43%
    17:00 +34°C° 0 mm 2 mps 716 mmHg 47%
    18:00 +31°C° 0 mm 2 mps 716 mmHg 51%
    19:00 +31°C° 0 mm 2 mps 717 mmHg 54%
    20:00 +30°C° 0 mm 2 mps 717 mmHg 57%
    21:00 +29°C° 0 mm 2 mps 717 mmHg 61%
    22:00 +29°C° 0 mm 2 mps 717 mmHg 62%
    23:00 +28°C° 0 mm 2 mps 717 mmHg 64%
    Show more